Location: Dodge City Community College Clyde Tombaugh Astronomy Center
(37.7756°N, 100.0412°W)
Time: 05:06:25
(UTC+00:00)

BlueWalker 3 - Visible Passes

Search period start: 30 November 2022 00:00
Search period end: 10 December 2022 00:00
Orbit: 500 x 519 km, 53.2° (Epoch: 29 November)

Date Brightness Start Highest point End Pass type
(mag) Time Alt. Az. Time Alt. Az. Time Alt. Az.
05 Dec 4.5 01:00:35 10° N 01:00:51 10° N 01:00:51 10° N visible
06 Dec 4.2 00:42:05 10° N 00:43:19 12° NNE 00:43:19 12° NNE visible
07 Dec 4.1 00:23:36 10° N 00:25:13 12° NNE 00:25:50 12° NNE visible
08 Dec 4.1 00:05:06 10° N 00:06:51 13° NNE 00:08:28 10° NE visible
08 Dec 4.5 01:42:31 10° NW 01:43:18 15° NW 01:43:18 15° NW visible
09 Dec 3.5 01:24:05 10° NW 01:26:05 27° NNW 01:26:05 27° NNW visible
